Date String (YYYY-MM-DD hh:mm:ss) UTC,Instrument flags,Ambient pressure (hPa),Sample flow (lpm),Bypass flow (lpm),Sample temperature (°C),Ambient temperature (°C),ASC tube jacket temperature (°C),LED temperature (°C),Box temperature (°C),Sample RH (%),Span deviation,Mass concentration (μg/m³),Mass concentration (μg/m³),Mass concentration (μg/m³)
DateTimeUTC,F1_M11,P_M11,Q1_M11,Q2_M11,T1_M11,T2_M11,T3_M11,T4_M11,T5_M11,U1_M11,ZSPAN_M11,X2_M11,X0_M11,X1_M11
2022-04-06 12:00:00,,0825.4,5.00,0.00,21.6,20.7,00.0,30.8,23.0,05.0,0000.0,0001.42,0005.56,0000.71
2022-04-06 12:01:00,,0825.5,5.00,0.00,21.5,20.6,00.0,30.7,23.0,05.0,0000.0,0001.39,0005.50,0000.70
2022-04-06 12:02:00,,0825.5,5.00,0.00,21.5,20.5,00.0,30.7,23.0,05.1,0000.0,0001.43,0005.54,0000.69
2022-04-06 12:03:00,,0825.4,5.01,0.00,21.5,21.1,00.0,30.7,23.1,05.1,0000.0,0001.39,0004.80,0000.68
2022-04-06 12:04:00,,0825.5,5.01,0.00,21.6,22.2,00.0,30.8,23.5,04.9,0000.0,0001.42,0004.94,0000.66
2022-04-06 12:05:00,,0825.6,4.99,0.00,21.8,23.0,00.0,30.8,23.8,04.8,0000.0,0001.48,0005.10,0000.65
2022-04-06 12:06:00,,0825.8,5.00,0.00,21.9,23.1,00.0,30.8,23.9,04.9,0000.0,0001.47,0004.32,0000.65
2022-04-06 12:07:00,,0825.7,5.01,0.00,21.9,22.6,00.0,30.8,23.8,04.9,0000.0,0001.45,0003.46,0000.64
2022-04-06 12:08:00,,0825.8,5.00,0.00,21.9,22.2,00.0,30.8,23.6,04.9,0000.0,0001.46,0003.51,0000.63
2022-04-06 12:09:00,,0825.8,4.99,0.00,21.8,21.8,00.0,30.8,23.5,04.9,0000.0,0001.46,0003.61,0000.62
2022-04-06 12:10:00,,0825.6,5.01,0.00,21.8,21.5,00.0,30.8,23.4,04.9,0000.0,0001.48,0003.98,0000.63
2022-04-06 12:11:00,,0825.5,5.01,0.00,21.7,21.3,00.0,30.8,23.3,04.9,0000.0,0001.46,0004.87,0000.64
2022-04-06 12:12:00,,0825.7,4.99,0.00,21.6,21.0,00.0,30.8,23.1,04.9,0000.0,0001.47,0005.32,0000.64
2022-04-06 12:13:00,,0825.7,5.01,0.00,21.6,20.7,00.0,30.8,23.0,04.9,0000.0,0001.47,0005.50,0000.65
2022-04-06 12:14:00,,0825.7,4.99,0.00,21.5,20.5,00.0,30.7,22.9,05.0,0000.0,0001.54,0005.66,0000.65
2022-04-06 12:15:00,,0825.7,5.00,0.00,21.4,20.5,00.0,30.7,22.9,05.0,0000.0,0001.52,0005.56,0000.64
2022-04-06 12:16:00,,0825.9,4.99,0.00,21.5,21.3,00.0,30.7,23.1,05.0,0000.0,0001.44,0005.76,0000.65
2022-04-06 12:17:00,,0826.0,5.01,0.00,21.7,22.4,00.0,30.8,23.5,05.0,0000.0,0001.44,0006.44,0000.63
2022-04-06 12:18:00,,0826.1,4.99,0.00,21.8,23.2,00.0,30.8,23.8,04.9,0000.0,0001.40,0006.36,0000.63
2022-04-06 12:19:00,,0826.1,4.99,0.00,22.0,23.2,00.0,30.8,23.9,04.9,0000.0,0001.39,0006.80,0000.64
2022-04-06 12:20:00,,0826.0,5.00,0.00,22.0,22.7,00.0,30.8,23.8,05.0,0000.0,0001.37,0007.10,0000.64
2022-04-06 12:21:00,,0826.1,5.00,0.00,21.9,22.3,00.0,30.8,23.7,05.0,0000.0,0001.38,0007.29,0000.63
2022-04-06 12:22:00,,0826.1,4.99,0.00,21.9,21.9,00.0,30.9,23.6,05.0,0000.0,0001.41,0008.09,0000.62
2022-04-06 12:23:00,,0826.1,5.01,0.00,21.9,21.7,00.0,30.9,23.5,05.0,0000.0,0001.45,0007.92,0000.62
2022-04-06 12:24:00,,0826.1,5.01,0.00,21.8,21.5,00.0,30.9,23.5,05.0,0000.0,0001.45,0007.81,0000.62
2022-04-06 12:25:00,,0826.2,4.98,0.00,21.8,21.3,00.0,30.9,23.4,05.1,0000.0,0001.43,0007.84,0000.63
2022-04-06 12:26:00,,0826.2,5.01,0.00,21.8,21.2,00.0,30.8,23.4,05.1,0000.0,0001.51,0008.26,0000.65
2022-04-06 12:27:00,,0826.2,5.01,0.00,21.8,21.1,00.0,30.8,23.4,05.1,0000.0,0001.52,0008.37,0000.66
2022-04-06 12:28:00,,0826.3,5.00,0.00,21.8,21.0,00.0,30.8,23.4,05.1,0000.0,0001.52,0007.91,0000.67
2022-04-06 12:29:00,,0826.4,5.00,0.00,21.7,21.0,00.0,30.8,23.4,05.1,0000.0,0001.53,0007.84,0000.68
2022-04-06 12:30:00,,0826.3,4.98,0.00,21.7,20.9,00.0,30.8,23.3,05.2,0000.0,0001.56,0007.65,0000.70
2022-04-06 12:31:00,,0826.3,5.01,0.00,21.7,20.9,00.0,30.8,23.3,05.2,0000.0,0001.58,0007.35,0000.71
2022-04-06 12:32:00,,0826.2,5.00,0.00,21.7,21.2,00.0,30.8,23.4,05.2,0000.0,0001.58,0006.85,0000.73
2022-04-06 12:33:00,,0826.2,5.00,0.00,21.8,22.1,00.0,30.8,23.7,05.1,0000.0,0001.73,0006.32,0000.76
2022-04-06 12:34:00,,0826.2,5.00,0.00,22.0,23.1,00.0,30.9,24.0,05.1,0000.0,0001.92,0008.41,0000.77
2022-04-06 12:35:00,,0826.3,5.00,0.00,22.1,23.6,00.0,30.9,24.2,05.1,0000.0,0001.98,0008.98,0000.79
2022-04-06 12:36:00,,0826.2,5.00,0.00,22.2,23.3,00.0,31.0,24.2,05.0,0000.0,0002.00,0009.11,0000.79
2022-04-06 12:37:00,,0826.3,4.99,0.00,22.2,22.8,00.0,31.0,24.1,04.9,0000.0,0001.92,0008.74,0000.78
2022-04-06 12:38:00,,0826.3,4.99,0.00,22.2,22.5,00.0,31.0,23.9,05.0,0000.0,0001.92,0008.42,0000.78
2022-04-06 12:39:00,,0826.2,5.02,0.00,22.1,22.1,00.0,31.0,23.8,05.0,0000.0,0001.92,0008.50,0000.78
2022-04-06 12:40:00,,0826.2,4.99,0.00,22.1,21.8,00.0,31.0,23.7,04.9,0000.0,0001.95,0008.67,0000.79
2022-04-06 12:41:00,,0826.2,5.00,0.00,22.0,21.6,00.0,31.0,23.6,04.9,0000.0,0002.01,0008.84,0000.79
2022-04-06 12:42:00,,0825.9,5.00,0.00,22.0,21.3,00.0,31.0,23.5,04.7,0000.0,0002.05,0008.89,0000.79
2022-04-06 12:43:00,,0826.0,5.01,0.00,21.9,21.1,00.0,31.0,23.3,04.7,0000.0,0002.12,0009.04,0000.79
2022-04-06 12:44:00,,0826.4,4.99,0.00,21.7,20.9,00.0,30.9,23.2,04.9,0000.0,0002.02,0008.18,0000.76
2022-04-06 12:45:00,,0826.5,5.00,0.00,21.7,20.7,00.0,30.9,23.1,05.0,0000.0,0001.82,0005.94,0000.76
2022-04-06 12:46:00,,0826.5,5.01,0.00,21.6,20.6,00.0,30.9,23.0,05.0,0000.0,0001.77,0004.89,0000.76
2022-04-06 12:47:00,,0826.4,5.00,0.00,21.5,20.6,00.0,30.8,23.0,05.1,0000.0,0001.72,0004.46,0000.76
2022-04-06 12:48:00,,0826.5,4.99,0.00,21.6,21.4,00.0,30.8,23.3,05.1,0000.0,0001.72,0004.41,0000.77
2022-04-06 12:49:00,,0826.5,5.01,0.00,21.8,22.4,00.0,30.9,23.6,05.1,0000.0,0001.73,0005.64,0000.77
2022-04-06 12:50:00,,0826.5,4.99,0.00,21.9,23.0,00.0,30.9,23.8,05.0,0000.0,0001.81,0007.06,0000.78
2022-04-06 12:51:00,,0826.5,5.01,0.00,22.0,22.7,00.0,30.9,23.8,05.1,0000.0,0001.79,0006.94,0000.78
2022-04-06 12:52:00,,0826.4,5.00,0.00,21.9,22.2,00.0,30.9,23.6,05.1,0000.0,0001.76,0007.28,0000.78
2022-04-06 12:53:00,,0826.4,4.99,0.00,21.8,21.9,00.0,30.9,23.5,05.1,0000.0,0001.74,0007.56,0000.77
2022-04-06 12:54:00,,0826.4,5.01,0.00,21.8,21.5,00.0,30.9,23.3,05.0,0000.0,0001.66,0007.49,0000.77
2022-04-06 12:55:00,,0826.5,4.98,0.00,21.7,21.2,00.0,30.9,23.2,05.0,0000.0,0001.61,0007.63,0000.78
2022-04-06 12:56:00,,0826.5,5.00,0.00,21.6,21.0,00.0,30.8,23.1,05.1,0000.0,0001.63,0007.80,0000.78
2022-04-06 12:57:00,,0826.5,5.00,0.00,21.6,20.8,00.0,30.8,23.0,05.1,0000.0,0001.61,0007.75,0000.77
2022-04-06 12:58:00,,0826.4,5.00,0.00,21.5,20.6,00.0,30.8,22.9,05.1,0000.0,0001.64,0007.78,0000.77
2022-04-06 12:59:00,,0826.5,4.99,0.00,21.4,20.5,00.0,30.7,22.8,05.2,0000.0,0001.65,0007.94,0000.77
